TimeMST,TemperatureF,Dew PointF,Humidity,Sea Level PressureIn,VisibilityMPH,Wind Direction,Wind SpeedMPH,Gust SpeedMPH,PrecipitationIn,Events,Conditions,WindDirDegrees,DateUTC
12:15 AM,50.0,35.6,58,30.11,10.0,NNE,9.2,-,N/A,,Clear,30,2013-11-19 07:15:00
12:35 AM,50.0,35.6,58,30.11,10.0,NNE,11.5,-,N/A,,Clear,30,2013-11-19 07:35:00
12:55 AM,48.2,35.6,62,30.12,10.0,NE,10.4,-,N/A,,Clear,40,2013-11-19 07:55:00
1:15 AM,50.0,35.6,58,30.11,10.0,NE,10.4,-,N/A,,Clear,50,2013-11-19 08:15:00
1:35 AM,50.0,35.6,58,30.10,10.0,NE,10.4,-,N/A,,Clear,40,2013-11-19 08:35:00
1:55 AM,48.2,35.6,62,30.10,10.0,NE,8.1,-,N/A,,Clear,40,2013-11-19 08:55:00
2:15 AM,48.2,37.4,66,30.10,10.0,NE,6.9,-,N/A,,Clear,50,2013-11-19 09:15:00
2:35 AM,48.2,37.4,66,30.09,10.0,NE,10.4,-,N/A,,Clear,40,2013-11-19 09:35:00
2:55 AM,48.2,37.4,66,30.09,10.0,NE,9.2,-,N/A,,Clear,50,2013-11-19 09:55:00
3:15 AM,50.0,37.4,62,30.08,10.0,NE,4.6,-,N/A,,Clear,40,2013-11-19 10:15:00
3:35 AM,48.2,37.4,66,30.07,10.0,NE,4.6,-,N/A,,Clear,50,2013-11-19 10:35:00
3:55 AM,48.2,37.4,66,30.07,10.0,NNE,3.5,-,N/A,,Clear,30,2013-11-19 10:55:00
4:15 AM,48.2,37.4,66,30.06,10.0,NNE,4.6,-,N/A,,Clear,30,2013-11-19 11:15:00
4:35 AM,46.4,35.6,66,30.06,10.0,NE,4.6,-,N/A,,Clear,40,2013-11-19 11:35:00
4:55 AM,46.4,37.4,71,30.06,10.0,NNE,5.8,-,N/A,,Clear,20,2013-11-19 11:55:00
5:15 AM,46.4,37.4,71,30.06,10.0,NE,3.5,-,N/A,,Clear,50,2013-11-19 12:15:00
5:35 AM,46.4,37.4,71,30.06,10.0,NE,6.9,-,N/A,,Clear,40,2013-11-19 12:35:00
5:55 AM,46.4,37.4,71,30.05,10.0,NE,5.8,-,N/A,,Clear,50,2013-11-19 12:55:00
6:15 AM,46.4,37.4,71,30.06,10.0,NE,5.8,-,N/A,,Clear,50,2013-11-19 13:15:00
6:35 AM,46.4,37.4,71,30.05,10.0,NE,4.6,-,N/A,,Clear,50,2013-11-19 13:35:00
6:55 AM,48.2,37.4,66,30.06,10.0,East,4.6,-,N/A,,Clear,80,2013-11-19 13:55:00
7:15 AM,48.2,37.4,66,30.06,10.0,ENE,3.5,-,N/A,,Clear,70,2013-11-19 14:15:00
7:35 AM,48.2,37.4,66,30.05,10.0,ENE,3.5,-,N/A,,Clear,70,2013-11-19 14:35:00
7:55 AM,50.0,37.4,62,30.07,10.0,Calm,Calm,-,N/A,,Clear,0,2013-11-19 14:55:00
8:15 AM,50.0,39.2,66,30.08,10.0,NNE,3.5,-,N/A,,Clear,30,2013-11-19 15:15:00
8:35 AM,50.0,37.4,62,30.07,10.0,Calm,Calm,-,N/A,,Clear,0,2013-11-19 15:35:00
8:55 AM,51.8,39.2,62,30.07,10.0,Calm,Calm,-,N/A,,Clear,0,2013-11-19 15:55:00
9:15 AM,51.8,39.2,62,30.08,10.0,Calm,Calm,-,N/A,,Clear,0,2013-11-19 16:15:00
9:35 AM,51.8,41.0,67,30.07,10.0,Calm,Calm,-,N/A,,Clear,0,2013-11-19 16:35:00
9:55 AM,55.4,41.0,58,30.07,10.0,SE,3.5,-,N/A,,Clear,130,2013-11-19 16:55:00
10:15 AM,57.2,41.0,55,30.07,10.0,SSE,5.8,-,N/A,,Clear,150,2013-11-19 17:15:00
10:35 AM,59.0,41.0,51,30.07,10.0,South,5.8,-,N/A,,Scattered Clouds,180,2013-11-19 17:35:00
10:55 AM,60.8,41.0,48,30.06,10.0,SE,5.8,-,N/A,,Scattered Clouds,140,2013-11-19 17:55:00
11:15 AM,62.6,42.8,48,30.06,10.0,SSE,9.2,-,N/A,,Scattered Clouds,160,2013-11-19 18:15:00
11:35 AM,62.6,42.8,48,30.05,10.0,SSE,10.4,-,N/A,,Scattered Clouds,160,2013-11-19 18:35:00
11:55 AM,62.6,42.8,48,30.04,10.0,South,6.9,-,N/A,,Scattered Clouds,190,2013-11-19 18:55:00
12:15 PM,62.6,42.8,48,30.03,10.0,South,10.4,-,N/A,,Scattered Clouds,180,2013-11-19 19:15:00
12:35 PM,64.4,42.8,45,30.02,10.0,SSE,8.1,17.3,N/A,,Scattered Clouds,160,2013-11-19 19:35:00
12:55 PM,64.4,41.0,42,30.00,10.0,South,10.4,16.1,N/A,,Scattered Clouds,170,2013-11-19 19:55:00
1:15 PM,64.4,41.0,42,30.00,10.0,SW,9.2,16.1,N/A,,Mostly Cloudy,230,2013-11-19 20:15:00
1:35 PM,64.4,41.0,42,29.98,10.0,South,6.9,16.1,N/A,,Scattered Clouds,170,2013-11-19 20:35:00
1:55 PM,64.4,39.2,40,29.97,10.0,SSE,11.5,17.3,N/A,,Scattered Clouds,160,2013-11-19 20:55:00
2:15 PM,64.4,39.2,40,29.96,10.0,South,12.7,18.4,N/A,,Scattered Clouds,180,2013-11-19 21:15:00
2:35 PM,64.4,37.4,37,29.96,10.0,SSW,11.5,17.3,N/A,,Clear,200,2013-11-19 21:35:00
2:55 PM,62.6,37.4,39,29.96,10.0,SW,8.1,-,N/A,,Clear,220,2013-11-19 21:55:00
3:15 PM,62.6,37.4,39,29.96,10.0,SW,5.8,-,N/A,,Clear,220,2013-11-19 22:15:00
3:35 PM,62.6,35.6,37,29.95,10.0,SSW,12.7,16.1,N/A,,Clear,210,2013-11-19 22:35:00
3:55 PM,60.8,37.4,42,29.95,10.0,SW,9.2,-,N/A,,Clear,220,2013-11-19 22:55:00
4:15 PM,60.8,35.6,39,29.95,10.0,SW,10.4,-,N/A,,Clear,220,2013-11-19 23:15:00
4:35 PM,60.8,37.4,42,29.95,10.0,SSW,10.4,-,N/A,,Clear,210,2013-11-19 23:35:00
4:55 PM,59.0,37.4,45,29.95,10.0,SW,8.1,-,N/A,,Clear,220,2013-11-19 23:55:00
5:15 PM,59.0,37.4,45,29.95,10.0,SW,9.2,-,N/A,,Clear,220,2013-11-20 00:15:00
5:35 PM,59.0,37.4,45,29.95,10.0,SW,5.8,-,N/A,,Clear,230,2013-11-20 00:35:00
5:55 PM,57.2,37.4,48,29.96,10.0,SW,6.9,-,N/A,,Clear,220,2013-11-20 00:55:00
6:15 PM,55.4,39.2,54,29.97,10.0,SW,6.9,-,N/A,,Clear,220,2013-11-20 01:15:00
6:35 PM,55.4,39.2,54,29.96,10.0,South,5.8,-,N/A,,Clear,190,2013-11-20 01:35:00
6:55 PM,55.4,39.2,54,29.97,10.0,SW,8.1,-,N/A,,Clear,220,2013-11-20 01:55:00
7:15 PM,55.4,41.0,58,29.97,10.0,WSW,4.6,-,N/A,,Clear,250,2013-11-20 02:15:00
7:35 PM,53.6,39.2,58,29.96,10.0,SW,4.6,-,N/A,,Clear,220,2013-11-20 02:35:00
7:55 PM,53.6,39.2,58,29.96,10.0,Calm,Calm,-,N/A,,Clear,0,2013-11-20 02:55:00
8:15 PM,53.6,39.2,58,29.97,10.0,Calm,Calm,-,N/A,,Scattered Clouds,0,2013-11-20 03:15:00
8:35 PM,51.8,39.2,62,29.97,10.0,Calm,Calm,-,N/A,,Scattered Clouds,0,2013-11-20 03:35:00
8:55 PM,51.8,39.2,62,29.98,10.0,Calm,Calm,-,N/A,,Clear,0,2013-11-20 03:55:00
9:15 PM,53.6,39.2,58,29.99,10.0,Calm,Calm,-,N/A,,Clear,0,2013-11-20 04:15:00
9:35 PM,51.8,39.2,62,29.99,10.0,Calm,Calm,-,N/A,,Clear,0,2013-11-20 04:35:00
9:55 PM,51.8,39.2,62,29.99,10.0,NE,3.5,-,N/A,,Mostly Cloudy,40,2013-11-20 04:55:00
10:15 PM,51.8,41.0,67,29.98,10.0,Calm,Calm,-,N/A,,Overcast,0,2013-11-20 05:15:00
10:35 PM,51.8,39.2,62,29.97,10.0,Calm,Calm,-,N/A,,Scattered Clouds,0,2013-11-20 05:35:00
10:55 PM,51.8,39.2,62,29.97,10.0,Calm,Calm,-,N/A,,Clear,0,2013-11-20 05:55:00
11:15 PM,51.8,39.2,62,29.97,10.0,Calm,Calm,-,N/A,,Clear,0,2013-11-20 06:15:00
11:35 PM,51.8,39.2,62,29.96,10.0,NE,3.5,-,N/A,,Clear,40,2013-11-20 06:35:00
11:55 PM,50.0,39.2,66,29.96,10.0,Calm,Calm,-,N/A,,Clear,0,2013-11-20 06:55:00